カタログに戻る

FENGYUN 1C DEB

運用中PO
NORAD 29767·DEBRIS·🇨🇳 China

打ち上げ May 10, 1999 から Taiyuan Satellite Launch Center

Loading…

次のパス (今後24時間)

TLE

最新Source: Space-Track

元期: Sep 13, 2026, 10:29 UTC

1 29767U 99025BH  26256.43680853  .00003075  00000-0  11869-2 0  9996
2 29767  98.2175 204.5337 0326099 357.3969 126.8663 14.05532064994565

AllMySatでFENGYUN 1C DEBをリアルタイム追跡

Download on the App Store